Simultaneous Nadir Overpasses (SNOs) Predictions

Prediction of SNOs between METOP-B and TERRA Satellite Orbit:

Table of predicted SNOs for the next 14.0 days since TLE Epoch: 12/17/2023
Index Date (METOP-B) Time (METOP-B) Lat,Lon (METOP-B) SZA (METOP-B ) Date (TERRA) Time (TERRA) Lat,Lon (TERRA) SZA (TERRA ) Distance(km) Time Diff (sec)
1 12/17/2023 21:15:11 80.56,-111.52 104.94 12/17/2023 21:15:16 80.56,-111.41 104.95 2.20 5
2 12/17/2023 22:05:48 -80.65, 57.11 74.89 12/17/2023 22:04:35 -80.64, 57.04 74.92 1.37 73
3 12/20/2023 12:36:04 -80.57,-161.62 75.01 12/20/2023 12:36:07 -80.56,-161.65 75.02 0.54 3
4 12/20/2023 13:25:57 81.32, 23.12 107.16 12/20/2023 13:24:44 81.66, 22.39 107.30 39.41 73
5 12/23/2023 03:56:57 80.56, 148.08 104.96 12/23/2023 03:56:58 80.56, 148.10 104.97 0.55 1
6 12/25/2023 19:17:50 -80.57, 97.91 75.11 12/25/2023 19:17:48 -80.57, 97.93 75.10 0.63 2
7 12/28/2023 09:48:06 -80.44,-121.28 75.45 12/28/2023 09:49:19 -80.45,-121.15 75.42 2.45 73
8 12/28/2023 10:38:41 80.58, 47.80 104.79 12/28/2023 10:38:37 80.57, 47.69 104.78 2.10 4
9 12/31/2023 01:08:57 80.47,-171.13 104.43 12/31/2023 01:10:08 80.47,-171.23 104.43 2.00 71



Historial Predications of SNOs between METOP-B and TERRA
